Zurück zum Katalog

CZ-6A DEB

AktivPO
NORAD 61329·DEBRIS·🇨🇳 China

Gestartet Aug 6, 2024 von Taiyuan Satellite Launch Center

Loading…

Nächste Überflüge (nächste 24 Stunden)

TLE

AktuellSource: Space-Track

Epoche: Sep 14, 2026, 08:32 UTC

1 61329U 24140US  26257.35569056  .00001611  00000-0  58005-3 0  9993
2 61329  88.5870 225.3097 0077388 141.8840 218.7866 14.31589472105846

Verfolge CZ-6A DEB in Echtzeit mit AllMySat

Download on the App Store